{"data":{"norad_id":52546,"epoch":"2026-05-25T03:49:32.655936Z","epoch_age_seconds":61506,"freshness":"FRESH","line1":"1 52546U 22051P   26145.15940574  .00000941  00000+0  77202-4 0  9990","line2":"2 52546  53.2148 145.6042 0001173  80.5495 279.5630 15.08845097222995","mean_motion":15.08845097,"eccentricity":0.0001173,"inclination_deg":53.2148,"raan_deg":145.6042,"arg_perigee_deg":80.5495,"mean_anomaly_deg":279.563,"bstar":7.7202e-5,"rev_number":22299,"period_min":95.437232282036,"perigee_km":538.91634397589,"apogee_km":540.5392750602,"semimajor_km":6917.864809518,"source":"CELESTRAK","updated_at":"2026-05-25T13:38:17.163568Z"}}